[[{"header":{"parameterUnit":"m.s-1","parameterCategory":1,"la1":30.2991,"la2":30.254,"lo1":-89.0895,"lo2":-89.0444,"dx":0.0017,"dy":0.0017,"nx":28,"ny":28,"refTime":"2022-11-26T09:00:00:Z","depth":0,"parameterNumber":2,"parameterNumberName":"U-component_of_WINDS"},"data":[0,0,0,0,0,0,0,0,0,0,0,0,0,0,0,0,0,0,0,0,0,0,0,0,0,0,0,0,0,0,0,0,0,0,0,0,0,0,0,0,0,0,0,0,0,0,0,0,0,0,0,0,0,0,0,0,0,0,-1.3427,-1.3428,0,-1.3518,-1.3519,-1.352,-1.3581,-1.3582,-1.3582,-1.3583,-1.3677,-1.3679,-1.3681,0,0,0,0,0,0,0,0,0,0,0,0,0,-1.3307,-1.3309,-1.3427,-1.3428,-1.3429,-1.3518,-1.3519,-1.352,-1.3581,-1.3582,-1.3582,-1.3583,-1.3676,-1.3678,-1.3681,0,0,0,0,0,0,0,0,0,0,0,0,0,-1.3375,-1.331,-1.3427,-1.347,-1.3475,-1.3518,-1.3519,-1.3521,-1.3581,-1.3582,-1.3582,-1.3583,-1.3675,-1.3678,-1.3681,-1.3688,0,0,-1.3691,-1.3692,0,0,0,0,0,0,0,0,-1.3371,-1.3379,-1.3463,-1.3468,-1.3473,-1.3539,-1.3511,-1.3577,-1.3581,-1.3541,-1.3583,-1.3583,-1.363,-1.3637,-1.3653,-1.3692,-1.3696,-1.3691,-1.3693,-1.3694,-1.3695,0,0,0,0,0,0,0,-1.3366,-1.3376,-1.3463,-1.3464,-1.347,-1.3486,-1.3496,-1.3524,-1.3581,-1.3544,-1.3549,-1.3559,-1.3633,-1.365,-1.3656,-1.3698,-1.3691,-1.3694,-1.3696,-1.3697,-1.3747,-1.3747,0,0,0,0,0,0,-1.3354,-1.3371,-1.346,-1.3466,-1.3422,-1.3487,-1.3499,-1.3517,-1.3581,-1.3591,-1.3558,-1.3562,-1.3644,-1.3652,-1.3659,-1.3671,-1.3694,-1.3697,-1.3699,-1.3748,-1.3747,-1.3747,0,0,0,0,0,0,-1.3352,-1.3362,-1.3457,-1.342,-1.3433,-1.3489,-1.3509,-1.3519,-1.3535,-1.3591,-1.3602,-1.3565,-1.3645,-1.3655,-1.368,-1.3675,-1.3699,-1.3702,-1.3749,-1.3748,-1.3747,-1.3695,0,0,0,0,0,0,-1.3348,-1.336,-1.3363,-1.3419,-1.3435,-1.3476,-1.3509,-1.352,-1.354,-1.3545,-1.36,-1.361,-1.3646,-1.3675,-1.3683,-1.368,-1.3704,-1.3749,-1.3748,-1.3747,-1.3697,-1.3692,-1.3688,0,0,0,0,0,-1.3343,-1.3345,-1.3363,-1.3374,-1.344,-1.3475,-1.3484,-1.3526,-1.354,-1.3543,-1.3579,-1.3608,-1.3674,-1.3677,-1.3687,-1.3684,-1.375,-1.3748,-1.3747,-1.3699,-1.3693,-1.3688,0,0,0,0,0,0,-1.3287,-1.3353,-1.3374,-1.3394,-1.3428,-1.3486,-1.3491,-1.3518,-1.355,-1.3553,-1.3604,-1.3615,-1.3636,-1.3663,-1.3665,-1.3694,-1.3716,-1.3716,-1.3676,-1.367,-1.3666,-1.3659,-1.3707,0,0,0,0,0,-1.3277,-1.3301,-1.3357,-1.3369,-1.3386,-1.3435,-1.3452,-1.3481,-1.3519,-1.3534,-1.3572,-1.3608,-1.3638,-1.3656,-1.3685,-1.3701,-1.3714,-1.3705,-1.37,-1.3696,-1.3696,-1.3706,-1.3702,-1.3742,-1.3742,-1.3742,0,0,-1.3257,-1.3296,-1.3307,-1.3359,-1.3389,-1.3412,-1.3447,-1.347,-1.3488,-1.3538,-1.3564,-1.3593,-1.3637,-1.3658,-1.3669,-1.3681,-1.3687,-1.3694,-1.3691,-1.3693,-1.3704,-1.3701,-1.3697,-1.3742,-1.3742,-1.3742,0,0,-1.3231,-1.3263,-1.3277,-1.3306,-1.3351,-1.3384,-1.3387,-1.344,-1.3461,-1.3489,-1.3527,-1.3549,-1.3598,-1.3627,-1.3648,-1.3634,-1.3661,-1.3642,-1.3618,-1.3627,-1.3624,-1.3622,-1.3616,-1.3614,-1.3642,-1.3642,-1.3642,0,-1.32,-1.3236,-1.328,-1.3301,-1.3323,-1.3369,-1.3383,-1.3409,-1.3462,-1.3476,-1.3489,-1.3551,-1.3584,-1.3612,-1.3608,-1.3624,-1.3629,-1.3636,-1.3621,-1.3619,-1.3617,-1.3613,-1.361,-1.3639,-1.3639,-1.364,-1.364,0,-1.3196,-1.322,-1.3226,-1.3275,-1.3297,-1.3314,-1.3361,-1.3378,-1.3405,-1.3437,-1.3464,-1.3505,-1.3543,-1.3552,-1.3579,-1.3584,-1.359,-1.3611,-1.3634,-1.361,-1.3606,-1.3605,-1.3635,-1.3636,-1.3637,-1.3638,0,0,-1.3138,-1.321,-1.3212,-1.3234,-1.3287,-1.3307,-1.3327,-1.3364,-1.3378,-1.3413,-1.343,-1.3471,-1.349,-1.3514,-1.3545,-1.3553,-1.3539,-1.3574,-1.3575,-1.3565,-1.3547,-1.353,-1.3527,-1.3557,-1.3557,-1.3557,-1.3543,0,-1.312,-1.3156,-1.3196,-1.3219,-1.3242,-1.3286,-1.3303,-1.3338,-1.3368,-1.3392,-1.3426,-1.3453,-1.3477,-1.3492,-1.3502,-1.3538,-1.3536,-1.354,-1.3574,-1.3575,-1.3562,-1.3526,-1.3509,-1.3493,-1.3542,-1.3542,-1.3542,0,-1.3104,-1.3136,-1.3161,-1.3211,-1.3223,-1.3237,-1.3274,-1.3297,-1.3337,-1.3358,-1.3385,-1.3417,-1.344,-1.346,-1.3492,-1.3494,-1.3511,-1.3531,-1.3531,-1.3536,-1.3556,-1.3529,-1.3489,-1.3487,-1.354,-1.354,-1.354,0,-1.3058,-1.3108,-1.3129,-1.3147,-1.3207,-1.3216,-1.3241,-1.3282,-1.3302,-1.3335,-1.3348,-1.3383,-1.3403,-1.3429,-1.3471,-1.3481,-1.3499,-1.3522,-1.3517,-1.3516,-1.3518,-1.3518,-1.348,-1.3529,-1.3529,-1.3529,-1.3529,0,-1.3034,-1.3048,-1.3109,-1.3122,-1.3139,-1.3185,-1.32,-1.3229,-1.3265,-1.3285,-1.3325,-1.3343,-1.3396,-1.342,-1.3453,-1.3475,-1.3483,-1.3501,-1.351,-1.3497,-1.3495,-1.3509,-1.3511,-1.3529,-1.3529,-1.3529,-1.3529,0,-1.2986,-1.3028,-1.3054,-1.3108,-1.3122,-1.3132,-1.3178,-1.3193,-1.3225,-1.3249,-1.3258,-1.3309,-1.3339,-1.3383,-1.3427,-1.3449,-1.3466,-1.3479,-1.3452,-1.3457,-1.3449,-1.3449,-1.3419,-1.3418,-1.3468,-1.3467,-1.3467,0,-1.2968,-1.2979,-1.3034,-1.305,-1.3074,-1.3099,-1.3119,-1.3165,-1.3185,-1.3231,-1.324,-1.3273,-1.3302,-1.3349,-1.339,-1.3424,-1.3439,-1.3426,-1.3444,-1.3432,-1.3438,-1.3437,-1.3438,-1.3422,-1.3421,-1.342,-1.342,0,-1.2931,-1.2951,-1.2978,-1.3013,-1.3036,-1.3065,-1.3097,-1.3108,-1.316,-1.318,-1.3212,-1.3234,-1.3279,-1.3312,-1.3351,-1.3378,-1.3407,-1.3414,-1.3414,-1.3402,-1.3385,-1.3394,-1.344,-1.3414,-1.3415,-1.3415,-1.3415,-1.3416,-1.2897,-1.2909,-1.295,-1.2979,-1.3007,-1.3036,-1.3052,-1.3086,-1.3112,-1.3152,-1.3177,-1.3207,-1.3247,-1.3303,-1.3328,-1.3353,-1.3365,-1.3366,-1.3366,-1.3366,-1.3361,-1.3381,-1.336,-1.336,-1.3361,-1.3361,-1.3361,0,-1.2862,-1.289,-1.2917,-1.2959,-1.2982,-1.3007,-1.3043,-1.3061,-1.3087,-1.3121,-1.3149,-1.3185,-1.3217,-1.326,-1.3295,-1.3306,-1.3321,-1.3314,-1.3314,-1.3319,-1.3348,-1.3344,-1.3302,-1.3302,-1.3302,-1.3302,-1.3302,-1.3302,-1.2847,-1.2868,-1.2892,-1.2928,-1.2957,-1.2986,-1.3004,-1.3031,-1.3058,-1.3096,-1.3123,-1.3151,-1.3189,-1.3227,-1.3258,-1.327,-1.3281,-1.327,-1.3286,-1.3312,-1.3317,-1.3322,-1.3319,-1.3272,-1.3272,-1.3255,-1.3254,-1.3254]},{"header":{"parameterUnit":"m.s-1","parameterCategory":1,"la1":30.2991,"la2":30.254,"lo1":-89.0895,"lo2":-89.0444,"dx":0.0017,"dy":0.0017,"nx":28,"ny":28,"refTime":"2022-11-26T09:00:00:Z","depth":0,"parameterNumber":3,"parameterNumberName":"V-component_of_WINDS"},"data":[0,0,0,0,0,0,0,0,0,0,0,0,0,0,0,0,0,0,0,0,0,0,0,0,0,0,0,0,0,0,0,0,0,0,0,0,0,0,0,0,0,0,0,0,0,0,0,0,0,0,0,0,0,0,0,0,0,0,7.6472,7.6474,0,7.6605,7.6607,7.6608,7.66,7.6598,7.6596,7.6595,7.6726,7.6731,7.6736,0,0,0,0,0,0,0,0,0,0,0,0,0,7.6207,7.6212,7.6472,7.6474,7.6475,7.6605,7.6607,7.6609,7.6601,7.6598,7.6596,7.6594,7.6724,7.673,7.6736,0,0,0,0,0,0,0,0,0,0,0,0,0,7.6329,7.6214,7.6472,7.6487,7.649,7.6605,7.6607,7.6609,7.6601,7.6598,7.6595,7.6593,7.6722,7.673,7.6737,7.6844,0,0,7.6761,7.6765,0,0,0,0,0,0,0,0,7.6322,7.6339,7.6483,7.6486,7.649,7.6583,7.6561,7.6688,7.6602,7.6559,7.6595,7.6591,7.668,7.6691,7.6723,7.685,7.6855,7.6762,7.6767,7.677,7.6773,0,0,0,0,0,0,0,7.6314,7.6333,7.6525,7.6485,7.6489,7.6486,7.65,7.6585,7.6634,7.6562,7.6562,7.6578,7.6681,7.6715,7.6726,7.6857,7.6762,7.6769,7.6774,7.6777,7.7081,7.7084,0,0,0,0,0,0,7.6303,7.6326,7.652,7.6529,7.6397,7.6493,7.6509,7.6556,7.6633,7.6642,7.6581,7.6577,7.6703,7.6716,7.673,7.6862,7.677,7.6778,7.6782,7.7078,7.7082,7.7085,0,0,0,0,0,0,7.6297,7.632,7.6515,7.6428,7.6452,7.6501,7.6554,7.656,7.6594,7.6647,7.6655,7.6606,7.6701,7.6719,7.6817,7.6866,7.6781,7.6789,7.7074,7.7079,7.7084,7.7125,0,0,0,0,0,0,7.629,7.6318,7.636,7.6429,7.6457,7.66,7.6557,7.6565,7.6608,7.6605,7.6673,7.6681,7.67,7.6805,7.6824,7.6876,7.6795,7.707,7.7076,7.7082,7.7119,7.7131,7.7141,0,0,0,0,0,7.628,7.6364,7.6362,7.6386,7.651,7.6603,7.6619,7.6641,7.6612,7.6654,7.6689,7.6679,7.6857,7.6815,7.6837,7.6891,7.7067,7.7074,7.7082,7.7115,7.7129,7.714,0,0,0,0,0,0,7.6298,7.6374,7.6372,7.6481,7.6536,7.6602,7.6655,7.6654,7.6717,7.6712,7.6734,7.6749,7.6848,7.6879,7.683,7.6999,7.6958,7.697,7.6976,7.6989,7.7,7.6991,7.6801,0,0,0,0,0,7.6315,7.6386,7.6447,7.6538,7.6566,7.6606,7.6647,7.6659,7.6716,7.6739,7.678,7.6835,7.6903,7.6948,7.7013,7.7123,7.7139,7.7172,7.7182,7.7191,7.7201,7.7264,7.728,7.711,7.711,7.711,0,0,7.635,7.64,7.6443,7.6543,7.6587,7.6659,7.6625,7.6702,7.6756,7.675,7.6846,7.6878,7.694,7.7045,7.7094,7.7074,7.7252,7.72,7.7207,7.7213,7.7273,7.7289,7.7304,7.7115,7.7114,7.7113,0,0,7.6452,7.6496,7.6578,7.6624,7.6692,7.6718,7.6738,7.6804,7.6827,7.6923,7.6921,7.6984,7.7101,7.7146,7.7185,7.7306,7.73,7.7326,7.7382,7.7442,7.7456,7.7468,7.7513,7.7528,7.7336,7.7336,7.7336,0,7.6486,7.6597,7.6619,7.6699,7.6743,7.6743,7.6826,7.6868,7.6953,7.6984,7.6961,7.711,7.7151,7.7268,7.7298,7.7328,7.7352,7.7319,7.7452,7.7465,7.7476,7.7519,7.7536,7.7339,7.7339,7.7339,7.7338,0,7.6637,7.6713,7.6771,7.6857,7.6907,7.6987,7.7022,7.707,7.7078,7.7106,7.7206,7.7256,7.7333,7.7361,7.7368,7.748,7.7466,7.7448,7.7407,7.7495,7.7536,7.7552,7.7343,7.7342,7.7341,7.7341,0,0,7.6753,7.6852,7.6873,7.6913,7.6989,7.7048,7.7128,7.7206,7.7248,7.7306,7.7374,7.7474,7.7459,7.7502,7.7515,7.7568,7.7663,7.7543,7.7545,7.7565,7.7791,7.7806,7.7824,7.7659,7.7662,7.7665,7.7786,0,7.6864,7.7009,7.7033,7.716,7.7232,7.7233,7.7303,7.7357,7.7386,7.745,7.7481,7.7553,7.7526,7.7553,7.7605,7.764,7.7709,7.7632,7.7723,7.7726,7.771,7.7845,7.7861,7.7973,7.7802,7.7805,7.7807,0,7.7013,7.7079,7.7214,7.7283,7.7314,7.7377,7.7451,7.7512,7.7573,7.759,7.764,7.7647,7.773,7.7685,7.78,7.7747,7.7785,7.7808,7.7813,7.7824,7.7773,7.7861,7.8009,7.8026,7.7832,7.783,7.7828,0,7.7087,7.7209,7.7307,7.734,7.7422,7.7467,7.7502,7.7561,7.7607,7.7671,7.7701,7.7773,7.7812,7.7867,7.7893,7.7858,7.8007,7.7964,7.8024,7.8024,7.8056,7.8054,7.8214,7.8078,7.8078,7.8078,7.8077,0,7.721,7.7292,7.7342,7.7401,7.7495,7.752,7.7611,7.7646,7.7698,7.7764,7.7768,7.783,7.786,7.7926,7.7946,7.8039,7.8056,7.8072,7.8077,7.8073,7.8072,7.81,7.8093,7.8082,7.8081,7.808,7.808,0,7.7308,7.7344,7.7451,7.7521,7.754,7.7606,7.7665,7.7723,7.7752,7.7836,7.7857,7.7902,7.7981,7.8012,7.8106,7.812,7.8228,7.8225,7.8208,7.821,7.827,7.8264,7.8454,7.8481,7.8326,7.8328,7.8329,0,7.7385,7.745,7.7527,7.7573,7.7611,7.7684,7.7732,7.776,7.7809,7.7885,7.7934,7.8013,7.8077,7.8202,7.8242,7.8315,7.8315,7.8377,7.8326,7.8321,7.8319,7.8315,7.8323,7.8387,7.8388,7.839,7.8391,0,7.7518,7.7534,7.7603,7.768,7.7738,7.7799,7.7858,7.7895,7.7932,7.7987,7.8069,7.8119,7.8217,7.8295,7.8371,7.8406,7.8405,7.8406,7.8425,7.8422,7.8411,7.842,7.8236,7.8402,7.8401,7.84,7.8399,7.8399,7.761,7.7668,7.7733,7.7811,7.7859,7.7915,7.7974,7.8012,7.8081,7.8165,7.8177,7.8264,7.8324,7.8426,7.8465,7.8533,7.8517,7.8543,7.8549,7.8556,7.8561,7.8399,7.8546,7.8546,7.8546,7.8546,7.8545,0,7.7745,7.7787,7.7859,7.7944,7.8006,7.8001,7.8067,7.8118,7.8196,7.8253,7.8318,7.8412,7.8488,7.8536,7.8612,7.8658,7.866,7.8677,7.8675,7.8684,7.857,7.8548,7.8675,7.8675,7.8675,7.8675,7.8675,7.8675,7.7823,7.7922,7.7946,7.8069,7.811,7.8198,7.8236,7.8288,7.8334,7.844,7.8505,7.8536,7.8589,7.867,7.874,7.8752,7.8781,7.88,7.8811,7.8705,7.8691,7.8678,7.8658,7.8806,7.8806,7.8919,7.892,7.8921]}]]